THORAD AGENA D DEB, 19150

Orbit data source: Space-Track

THORAD AGENA D DEB, 19150 is space debris in SSO originally from a launch on Wed, 08 Apr 1970 UTC launched from the Air Force Western Test Range (AFWTR). Debris objects in space refer to the collection of defunct objects orbiting the Earth. Examples of debris include non-operational satellites, rocket bodies, and fragments generated from explosions, collisions, or faulty payload assembly.

Loading next visibility...
Identifier
19150, 1970-025PS
Orbit
SSO
Country
Flag of USUS
Related business
Manufacturer
Unknown
Mission
Spacecraft
Bus & Motor
Unknown
Mass
Unknown
Launch date (UTC)
1970-04-08 (56 years ago)
Launch vehicle
Unknown
Launch site
Air Force Western Test Range (AFWTR)
Object type
Payload
Rocket body
Debris
Shape & HBR
Unknown shape, 0.1 m
Radar Cross Section
Small (<0.1 m²)

Expand to show TLE details & history
Last TLE update: 2 days ago

TLE from 2 days ago
0 THORAD AGENA D DEB
1 19150U 70025PS  25340.03840298  .00018796  00000-0  86037-2 0  9995
2 19150 100.3453 250.6652 0029082 325.5739  34.3548 14.21196846877927
Epoch: 2025-12-06T00:55Z
TLE epoch observation values (Epoch: 2025-12-06T00:55:18.017Z)
Latitude
-0.00002°
Longitude
161.76825°
Altitude
806.898 km
Speed
7.459 km/s
True Right ascension
16h 42m 39s
True Declination
0° 00' 00"
Sunlit
Object was in daylight at epoch
Visualization orbit readout
Latitude
Unknown
Longitude
Unknown
Altitude
Unknown
Speed
Unknown
Apparent Right ascension
Unknown
Apparent Declination
Unknown
Sunlit
N/A
Visualization observer readout
Local Sidereal Time
12:28:27
Azimuth
Unknown
Elevation
Unknown
Doppler factor
Unknown
Orbital elements
Apogee altitude
839.48 km
Perigee altitude
797.621 km
Semi-major axis
7,196.687 km
Eccentricity
0.00291
Inclination
100.3453°
RAAN
250.6652°
Arg. of periapsis
325.5739°
True anomaly
34.54343°
Mean anomaly
34.3548°
Eccentric anomaly
34.44906°
Mean motion
3.55504 °/min
Orbital period
101.26 mins
BSTAR
0.0086037
Loading maneuver chart data...
Computing Atmospheric mass density...

Documentation

Showing up to 5 results
|